Weather History for Custer, SD

Change the Weather History Date:

Monday, November 8, 2010

  Actual Average Record
Temperature  
Mean Temperature 51 °F 35 °F  
Max Temperature 63 °F 46 °F 70 °F (1978)
Min Temperature 38 °F 24 °F -10 °F (1948)
Degree Days  
Heating Degree Days 14 30  
Month to date heating degree days 145 229  
Since 1 July heating degree days 1100 1408  
Cooling Degree Days 0 0  
Month to date cooling degree days 0 0  
Year to date cooling degree days 179 177  
Growing Degree Days 2 (Base 50)    
Moisture  
Dew Point 25 °F    
Average Humidity 39    
Maximum Humidity 57    
Minimum Humidity 20    
Precipitation  
Precipitation 0.00 in 0.03 in 0.37 in (1966)
Month to date precipitation 0.00 0.19  
Year to date precipitation 19.53 18.15  
Sea Level Pressure  
Sea Level Pressure 29.61 in    
Wind  
Wind Speed 7 mph (WSW)    
Max Wind Speed 18 mph    
Max Gust Speed 29 mph    
Visibility 10 miles    
Events      
T = Trace of Precipitation, MM = Missing Value Source: NWS Daily Summary

Daily Weather History Graph

Daily Weather History Graph

Search for Another Location

Airport:

Trip Planner

Search our weather history database for the weather conditions in past years. The results will help you decide how hot, cold, wet, or windy it might be!

Date:

Astronomy

Nov. 08, 2010 Rise Set
Actual Time 6:39 AM MST 4:36 PM MST
Civil Twilight 6:09 AM MST 5:06 PM MST
Nautical Twilight 5:34 AM MST 5:41 PM MST
Astronomical Twilight 5:01 AM MST 6:14 PM MST
Moon 9:35 AM MST (11/8) 6:29 PM MST (11/8)
Length of Visible Light 10h 57m
Length of Day
9h 56m
Waxing Crescent, 8% of the Moon is Illuminated
Nov 8
Waxing Crescent
Nov 13
First Quarter
Nov 21
Full
Nov 28
Last Quarter
Dec 5
New

Hourly Weather History & Observations

Time (MST) Temp. Windchill Dew Point Humidity Pressure Visibility Wind Dir Wind Speed Gust Speed Precip Events Conditions
12:53 AM 44.1 °F 39.0 °F 28.9 °F 55% 29.68 in 10.0 mi West 9.2 mph - N/A   Clear
1:53 AM 42.1 °F 37.1 °F 28.9 °F 60% 29.65 in 10.0 mi West 8.1 mph - N/A   Clear
2:53 AM 42.1 °F 38.4 °F 28.0 °F 58% 29.65 in 10.0 mi WSW 5.8 mph - N/A   Clear
3:53 AM 41.0 °F 37.1 °F 27.0 °F 57% 29.65 in 10.0 mi WNW 5.8 mph - N/A   Clear
4:53 AM 42.1 °F 37.7 °F 27.0 °F 55% 29.69 in 10.0 mi West 6.9 mph - N/A   Clear
5:53 AM 42.1 °F - 26.1 °F 53% 29.68 in 10.0 mi Calm Calm - N/A   Clear
6:53 AM 45.0 °F 41.8 °F 28.0 °F 52% 29.69 in 10.0 mi West 5.8 mph - N/A   Clear
7:53 AM 48.9 °F - 28.0 °F 44% 29.70 in 10.0 mi West 8.1 mph - N/A   Clear
8:53 AM 53.1 °F - 26.1 °F 35% 29.67 in 10.0 mi West 9.2 mph - N/A   Clear
9:53 AM 57.9 °F - 26.1 °F 30% 29.66 in 10.0 mi WSW 9.2 mph 20.7 mph N/A   Clear
10:53 AM 57.9 °F - 27.0 °F 31% 29.65 in 10.0 mi SW 11.5 mph 19.6 mph N/A   Clear
11:53 AM 61.0 °F - 25.0 °F 25% 29.61 in 10.0 mi SW 15.0 mph 25.3 mph N/A   Clear
12:53 PM 60.1 °F - 24.1 °F 25% 29.59 in 10.0 mi SW 8.1 mph 18.4 mph N/A   Clear
1:53 PM 62.1 °F - 23.0 °F 22% 29.58 in 10.0 mi SW 10.4 mph 20.7 mph N/A   Clear
2:53 PM 63.0 °F - 21.0 °F 20% 29.57 in 10.0 mi SSW 9.2 mph 17.3 mph N/A   Clear
3:53 PM 59.0 °F - 19.9 °F 22% 29.58 in 10.0 mi Variable 6.9 mph - N/A   Clear
4:53 PM 55.0 °F - 19.9 °F 25% 29.58 in 10.0 mi Calm Calm - N/A   Clear
5:53 PM 52.0 °F - 21.0 °F 30% 29.60 in 10.0 mi South 4.6 mph - N/A   Clear
6:53 PM 46.0 °F - 21.0 °F 37% 29.60 in 10.0 mi Calm Calm - N/A   Clear
7:53 PM 43.0 °F 41.3 °F 21.0 °F 42% 29.60 in 10.0 mi NW 3.5 mph - N/A   Clear
8:53 PM 48.9 °F - 21.9 °F 35% 29.56 in 10.0 mi West 6.9 mph - N/A   Mostly Cloudy
9:53 PM 46.0 °F 44.8 °F 21.9 °F 39% 29.54 in 10.0 mi SW 3.5 mph - N/A   Clear
10:53 PM 52.0 °F - 26.1 °F 37% 29.51 in 10.0 mi WNW 9.2 mph - N/A   Overcast
11:53 PM 53.1 °F - 28.9 °F 40% 29.46 in 10.0 mi WNW 6.9 mph 18.4 mph N/A   Clear